Regional Weather Roundup
Issued by NWS Newport/Morehead, NC

Current Version | Previous Version | Text Only | Print | Product List | Glossary On
Versions: 1 2 3 4 5 6 7 8 9 10 11 12 13 14 15 16 17 18 19 20 21 22 23 24 25 26 27 28 29 30 31 32 33 34 35 36 37 38 39 40 41 42 43 44 45 46 47 48 49 50
000
ASUS42 KMHX 250313
RWRMHX
WEATHER ROUNDUP FOR EASTERN NORTH CAROLINA
NATIONAL WEATHER SERVICE NEWPORT/MOREHEAD CITY NC
1100 PM EDT SUN JUL 24 2016

NOTE: "FAIR" INDICATES FEW OR NO CLOUDS BELOW 12,000 FEET
WITH NO SIGNIFICANT WEATHER AND/OR OBSTRUCTIONS TO VISIBILITY

NCZ015>017-031-032-045>047-102-103-250400-
NORTH COAST

CITY           SKY/WX    TMP DP  RH WIND       PRES   REMARKS
EDENTON        CLEAR     85  76  74 SW7       30.04R
ELIZABETH CITY CLEAR     83  78  85 S8        30.03R
KITTY HAWK     CLEAR     83  76  79 SW5       30.03S
MANTEO           N/A     83  79  88 SW13      30.04S

$$

NCZ045>047-081-094-103-104-250400-
CENTRAL COAST

CITY           SKY/WX    TMP DP  RH WIND       PRES   REMARKS
FRISCO         PTCLDY    82  78  88 SW7       30.06R

$$

NCZ095-097-098-100-101-250400-
SOUTHERN COAST

CITY           SKY/WX    TMP DP  RH WIND       PRES   REMARKS
BEAUFORT       PTCLDY    83  76  79 SW12      30.06R
CEDAR ISLAND   NOT AVBL
JACKSONVILLE   CLEAR     80  75  84 S3        30.05R
PINEY ISLAND   CLEAR    N/A N/A N/A S5        30.05
WILMINGTON     CLEAR     80  74  81 S5        30.06R


$$

NCZ011>013-027>030-043-044-078>080-089-090>093-098-250400-
COASTAL PLAIN

CITY           SKY/WX    TMP DP  RH WIND       PRES   REMARKS
AHOSKIE        CLEAR     77  76  97 S3        30.04R FOG
CLINTON        PTCLDY    81  78  91 CALM      30.05S
ELIZABETHTOWN  CLEAR     81  78  90 S3        30.05R
GOLDSBORO      CLEAR     83  80  91 S6        30.03R
GREENVILLE     CLEAR     82  77  83 SW8       30.06R
HAVELOCK       PTCLDY    80  76  87 S6        30.06S
KENANSVILLE    NOT AVBL
KINSTON        CLEAR     80  75  85 S3        30.05S
NEW BERN       PTCLDY    80  76  87 S7        30.06R
RICHLANDS      CLEAR     77  76  96 S5        30.06
ROCKY MOUNT    CLEAR     80  76  87 S3        30.04R
WASHINGTON     CLEAR     80  75  84 S6        30.04S
WHITEVILLE     CLEAR     81  78  91 S3        30.05R

$$

AMZ130-135-150-152-154-156-158-170-250-252-270-ANZ085-086-088-633-658-670-250400-
MARINE OBSERVATIONS

STATION/POSITION TIME  TEMP    WIND        PRES    WAVE   SWELL
                       AIR SEA DIR/SP/G            HT/PER HT/PER
                 (UTC) (F)     (DEG/KT/KT) (MB)    (FT/S) (FT/S)
CHESAPEAKE LIGHT NOT AVBL
64 E VA BEACH    0250   83 81  210/ 12/ 16 1016.3    3/ 8   2/ 8
DUCK             0200   86 66                N/A
2 E DUCK         0211      76                N/A     1/ 8
OREGON INLET     0200   85 85                N/A
13E OREGON INLT  0200      83                N/A     2/ 9   2/ 9
HATTERAS CG      0200   83 84                N/A
DIAMOND BUOY     0250   85 85  220/ 14/ 16 1017.8    2/ 8   2/ 8
CAPE LOOKOUT     0300   83     210/  9/ 10 1017.6
BEAUFORT LAB     0200   84 85                N/A
30 SE NEW RVR IN 0208   85 85  210/ 12/ 14 1017.7
30 SE NEW RVR IN 0225      85                N/A     3/ 9
27 SE WRIGHTSVLE 0208   84 85  210/ 12/ 16 1017.8
5 SE WRIGHTSVLE  0208   84 84  220/ 12/ 16 1018.2
225 S CAPE HAT   0250   84 85  170/  2/  4 1019.5    2/ 9   2/ 9
41 SE CHARLESTON 0250   85 86  190/ 12/ 14 1017.3    2/ 8   2/ 8

$$




USA.gov is the U.S. government's official web portal to all federal, state and local government web resources and services.